| time (UTC) | temp F | wind direction | speed MPH | gust MPH | rain 1hr in | rain 24hr in | rain mn in | humidity % | barometer mb |
| 20260506070920 | 74 | 225 | 7.0 | 12.0 | 0.00 | 0.00 | 0.00 | ||
| 20260506070518 | 76 | 231 | 9.0 | 15.0 | 0.00 | 0.00 | 0.00 | ||
| 20260506070117 | 73 | 229 | 7.0 | 10.0 | 0.00 | 0.00 | 0.00 | ||
| 20260506062456 | 69 | 200 | 6.0 | 9.0 | 0.00 | 0.00 | 0.00 | ||
| 20260506062054 | 70 | 209 | 6.0 | 10.0 | 0.00 | 0.00 | 0.00 | ||
| 20260506061653 | 70 | 168 | 7.0 | 10.0 | 0.00 | 0.00 | 0.00 | ||
| 20260506061251 | 70 | 153 | 4.0 | 8.0 | 0.00 | 0.00 | 0.00 | ||
| 20260506060843 | 69 | 146 | 8.0 | 11.0 | 0.00 | 0.00 | 0.00 | ||
| 20260506060440 | 69 | 142 | 8.0 | 14.0 | 0.00 | 0.00 | 0.00 | ||
| 20260506051213 | 66 | 152 | 9.0 | 17.0 | 0.00 | 0.00 | 0.00 | ||
| 20260506050812 | 66 | 157 | 8.0 | 11.0 | 0.00 | 0.00 | 0.00 | ||
| 20260506050410 | 65 | 163 | 10.0 | 16.0 | 0.00 | 0.00 | 0.00 | ||
| 20260506044355 | 64 | 144 | 9.0 | 16.0 | 0.00 | 0.00 | 0.00 | ||
| 20260506043954 | 65 | 132 | 6.0 | 8.0 | 0.00 | 0.00 | 0.00 | ||
| 20260506043552 | 64 | 137 | 7.0 | 9.0 | 0.00 | 0.00 | 0.00 | ||
| 20260506043150 | 65 | 184 | 5.0 | 9.0 | 0.00 | 0.00 | 0.00 | ||
| 20260506042749 | 64 | 157 | 4.0 | 7.0 | 0.00 | 0.00 | 0.00 | ||
| 20260506042347 | 64 | 181 | 8.0 | 16.0 | 0.00 | 0.00 | 0.00 | ||
| 20260506041945 | 64 | 176 | 10.0 | 15.0 | 0.00 | 0.00 | 0.00 | ||
| 20260506041544 | 63 | 165 | 9.0 | 14.0 | 0.00 | 0.00 | 0.00 | ||
| 20260506041142 | 63 | 167 | 9.0 | 14.0 | 0.00 | 0.00 | 0.00 | ||
| 20260506040734 | 63 | 152 | 8.0 | 12.0 | 0.00 | 0.00 | 0.00 | ||
| 20260506040331 | 63 | 161 | 7.0 | 11.0 | 0.00 | 0.00 | 0.00 | ||
| 20260506035930 | 63 | 153 | 8.0 | 11.0 | 0.00 | 0.00 | 0.00 | ||
| 20260506035529 | 63 | 147 | 8.0 | 11.0 | 0.00 | 0.00 | 0.00 | ||
| 20260506035127 | 63 | 152 | 8.0 | 10.0 | 0.00 | 0.00 | 0.00 | ||
| 20260506034725 | 62 | 144 | 7.0 | 12.0 | 0.00 | 0.00 | 0.00 | ||
| 20260506034323 | 62 | 146 | 5.0 | 9.0 | 0.00 | 0.00 | 0.00 | ||
| 20260506033922 | 62 | 156 | 7.0 | 10.0 | 0.00 | 0.00 | 0.00 | ||
| 20260506033522 | 63 | 137 | 5.0 | 10.0 | 0.00 | 0.00 | 0.00 | ||
| 20260506033120 | 63 | 144 | 4.0 | 5.0 | 0.00 | 0.00 | 0.00 | ||
| 20260506032711 | 63 | 133 | 4.0 | 7.0 | 0.00 | 0.00 | 0.00 | ||
| 20260506032309 | 63 | 151 | 7.0 | 11.0 | 0.00 | 0.00 | 0.00 | ||
| 20260506031908 | 63 | 157 | 5.0 | 8.0 | 0.00 | 0.00 | 0.00 | ||
| 20260506031507 | 63 | 151 | 5.0 | 9.0 | 0.00 | 0.00 | 0.00 | ||
| 20260506031104 | 63 | 157 | 5.0 | 9.0 | 0.00 | 0.00 | 0.00 | ||
| 20260506030703 | 63 | 155 | 5.0 | 8.0 | 0.00 | 0.00 | 0.00 | ||
| 20260506030301 | 63 | 170 | 8.0 | 11.0 | 0.00 | 0.00 | 0.00 | ||
| 20260506025900 | 63 | 185 | 8.0 | 11.0 | 0.00 | 0.00 | 0.00 | ||
| 20260506025458 | 63 | 163 | 5.0 | 8.0 | 0.00 | 0.00 | 0.00 | ||
| 20260506025056 | 64 | 162 | 4.0 | 7.0 | 0.00 | 0.00 | 0.00 | ||
| 20260506024648 | 64 | 164 | 9.0 | 12.0 | 0.00 | 0.00 | 0.00 | ||
| 20260506024246 | 64 | 161 | 6.0 | 10.0 | 0.00 | 0.00 | 0.00 | ||
| 20260506023844 | 63 | 178 | 5.0 | 8.0 | 0.00 | 0.00 | 0.00 | ||
| 20260506023443 | 64 | 165 | 5.0 | 8.0 | 0.00 | 0.00 | 0.00 | ||
| 20260506023041 | 64 | 186 | 6.0 | 10.0 | 0.00 | 0.00 | 0.00 | ||
| 20260506022640 | 65 | 200 | 5.0 | 8.0 | 0.00 | 0.00 | 0.00 | ||
| 20260506022239 | 64 | 224 | 7.0 | 11.0 | 0.00 | 0.00 | 0.00 | ||
| 20260506021836 | 64 | 227 | 4.0 | 7.0 | 0.00 | 0.00 | 0.00 | ||
| 20260506021435 | 64 | 192 | 6.0 | 9.0 | 0.00 | 0.00 | 0.00 | ||
| 20260506021034 | 64 | 170 | 11.0 | 15.0 | 0.00 | 0.00 | 0.00 | ||
| 20260506020626 | 64 | 174 | 12.0 | 17.0 | 0.00 | 0.00 | 0.00 | ||
| 20260506020223 | 64 | 184 | 8.0 | 14.0 | 0.00 | 0.00 | 0.00 | ||
| 20260506015822 | 64 | 173 | 8.0 | 13.0 | 0.00 | 0.00 | 0.00 | ||
| 20260506015421 | 65 | 165 | 10.0 | 16.0 | 0.00 | 0.00 | 0.00 | ||
| 20260506015019 | 65 | 170 | 12.0 | 19.0 | 0.00 | 0.00 | 0.00 | ||
| 20260506014617 | 65 | 162 | 10.0 | 19.0 | 0.00 | 0.00 | 0.00 | ||
| 20260506014215 | 64 | 170 | 13.0 | 18.0 | 0.00 | 0.00 | 0.00 | ||
| 20260506013814 | 65 | 170 | 9.0 | 14.0 | 0.00 | 0.00 | 0.00 | ||
| 20260506013010 | 65 | 194 | 9.0 | 11.0 | 0.00 | 0.00 | 0.00 | ||
| 20260506012200 | 65 | 191 | 12.0 | 17.0 | 0.00 | 0.00 | 0.00 | ||
| 20260506011759 | 64 | 184 | 11.0 | 18.0 | 0.00 | 0.00 | 0.00 | ||
| 20260506011358 | 64 | 164 | 10.0 | 15.0 | 0.00 | 0.00 | 0.00 | ||
| 20260506010955 | 64 | 166 | 12.0 | 17.0 | 0.00 | 0.00 | 0.00 | ||
| 20260506010554 | 64 | 150 | 11.0 | 16.0 | 0.00 | 0.00 | 0.00 | ||
| 20260506010152 | 65 | 151 | 12.0 | 21.0 | 0.00 | 0.00 | 0.00 | ||
| 20260506005751 | 65 | 152 | 10.0 | 16.0 | 0.00 | 0.00 | 0.00 | ||
| 20260506005349 | 65 | 155 | 11.0 | 16.0 | 0.00 | 0.00 | 0.00 | ||
| 20260506004947 | 65 | 169 | 12.0 | 18.0 | 0.00 | 0.00 | 0.00 | ||
| 20260506004539 | 65 | 158 | 11.0 | 17.0 | 0.00 | 0.00 | 0.00 | ||
| 20260506004138 | 65 | 152 | 14.0 | 23.0 | 0.00 | 0.00 | 0.00 | ||
| 20260506003735 | 65 | 151 | 11.0 | 17.0 | 0.00 | 0.00 | 0.00 | ||
| 20260506003334 | 65 | 151 | 12.0 | 20.0 | 0.00 | 0.00 | 0.00 | ||
| 20260506002933 | 65 | 143 | 14.0 | 17.0 | 0.00 | 0.00 | 0.00 | ||
| 20260506002532 | 65 | 149 | 10.0 | 14.0 | 0.00 | 0.00 | 0.00 | ||
| 20260506002129 | 65 | 152 | 9.0 | 15.0 | 0.00 | 0.00 | 0.00 | ||
| 20260506001728 | 65 | 153 | 11.0 | 18.0 | 0.00 | 0.00 | 0.00 | ||
| 20260506001327 | 65 | 163 | 8.0 | 12.0 | 0.00 | 0.00 | 0.00 | ||
| 20260506000925 | 65 | 169 | 13.0 | 22.0 | 0.00 | 0.00 | 0.00 | ||
| 20260506000517 | 65 | 181 | 13.0 | 18.0 | 0.00 | 0.00 | 0.00 | ||
| 20260506000114 | 66 | 176 | 11.0 | 16.0 | 0.00 | 0.00 | 0.00 | ||
| 20260505235713 | 66 | 168 | 13.0 | 20.0 | 0.00 | 0.00 | 0.00 | ||
| 20260505235312 | 66 | 178 | 12.0 | 19.0 | 0.00 | 0.00 | 0.00 | ||
| 20260505234910 | 66 | 168 | 14.0 | 22.0 | 0.00 | 0.00 | 0.00 | ||
| 20260505234508 | 66 | 165 | 13.0 | 20.0 | 0.00 | 0.00 | 0.00 | ||
| 20260505234106 | 66 | 187 | 15.0 | 22.0 | 0.00 | 0.00 | 0.00 | ||
| 20260505233705 | 66 | 176 | 15.0 | 22.0 | 0.00 | 0.00 | 0.00 | ||
| 20260505233304 | 66 | 183 | 15.0 | 22.0 | 0.00 | 0.00 | 0.00 | ||
| 20260505232901 | 66 | 175 | 13.0 | 18.0 | 0.00 | 0.00 | 0.00 | ||
| 20260505232453 | 66 | 171 | 12.0 | 18.0 | 0.00 | 0.00 | 0.00 | ||
| 20260505232051 | 67 | 181 | 11.0 | 14.0 | 0.00 | 0.00 | 0.00 | ||
| 20260505231650 | 67 | 175 | 15.0 | 20.0 | 0.00 | 0.00 | 0.00 | ||
| 20260505231248 | 67 | 180 | 15.0 | 20.0 | 0.00 | 0.00 | 0.00 | ||
| 20260505230846 | 67 | 156 | 10.0 | 15.0 | 0.00 | 0.00 | 0.00 | ||
| 20260505230445 | 67 | 153 | 12.0 | 17.0 | 0.00 | 0.00 | 0.00 | ||
| 20260505230043 | 67 | 167 | 11.0 | 16.0 | 0.00 | 0.00 | 0.00 | ||
| 20260505225642 | 67 | 178 | 11.0 | 16.0 | 0.00 | 0.00 | 0.00 | ||
| 20260505225240 | 67 | 166 | 9.0 | 12.0 | 0.00 | 0.00 | 0.00 | ||
| 20260505224839 | 67 | 156 | 8.0 | 12.0 | 0.00 | 0.00 | 0.00 | ||
| 20260505224431 | 67 | 177 | 6.0 | 11.0 | 0.00 | 0.00 | 0.00 | ||
| 20260505224029 | 67 | 157 | 4.0 | 9.0 | 0.00 | 0.00 | 0.00 | ||
| 20260505223626 | 67 | 177 | 8.0 | 10.0 | 0.00 | 0.00 | 0.00 | ||
| 20260505223225 | 68 | 181 | 9.0 | 13.0 | 0.00 | 0.00 | 0.00 | ||
| 20260505222824 | 68 | 164 | 13.0 | 18.0 | 0.00 | 0.00 | 0.00 | ||
| 20260505222423 | 68 | 151 | 12.0 | 21.0 | 0.00 | 0.00 | 0.00 | ||
| 20260505222020 | 68 | 167 | 9.0 | 12.0 | 0.00 | 0.00 | 0.00 | ||
| 20260505221618 | 68 | 176 | 9.0 | 13.0 | 0.00 | 0.00 | 0.00 | ||
| 20260505221217 | 68 | 152 | 11.0 | 15.0 | 0.00 | 0.00 | 0.00 | ||
| 20260505220815 | 68 | 173 | 12.0 | 18.0 | 0.00 | 0.00 | 0.00 | ||
| 20260505220405 | 68 | 165 | 9.0 | 11.0 | 0.00 | 0.00 | 0.00 | ||
| 20260505220004 | 68 | 153 | 8.0 | 16.0 | 0.00 | 0.00 | 0.00 | ||
| 20260505215602 | 68 | 171 | 13.0 | 19.0 | 0.00 | 0.00 | 0.00 | ||
| 20260505215202 | 68 | 154 | 10.0 | 13.0 | 0.00 | 0.00 | 0.00 | ||
| 20260505214800 | 68 | 166 | 9.0 | 13.0 | 0.00 | 0.00 | 0.00 | ||
| 20260505214358 | 68 | 164 | 16.0 | 21.0 | 0.00 | 0.00 | 0.00 | ||
| 20260505213956 | 68 | 152 | 11.0 | 17.0 | 0.00 | 0.00 | 0.00 | ||
| 20260505213555 | 68 | 151 | 10.0 | 16.0 | 0.00 | 0.00 | 0.00 | ||
| 20260505213154 | 68 | 151 | 11.0 | 15.0 | 0.00 | 0.00 | 0.00 | ||
| 20260505212751 | 68 | 143 | 9.0 | 16.0 | 0.00 | 0.00 | 0.00 | ||
| 20260505212343 | 68 | 150 | 8.0 | 13.0 | 0.00 | 0.00 | 0.00 | ||
| 20260505211941 | 68 | 158 | 10.0 | 13.0 | 0.00 | 0.00 | 0.00 | ||
| 20260505211540 | 68 | 148 | 9.0 | 11.0 | 0.00 | 0.00 | 0.00 | ||
| 20260505211138 | 68 | 150 | 10.0 | 14.0 | 0.00 | 0.00 | 0.00 | ||
| 20260505210736 | 68 | 154 | 8.0 | 13.0 | 0.00 | 0.00 | 0.00 | ||
| 20260505210335 | 69 | 151 | 7.0 | 12.0 | 0.00 | 0.00 | 0.00 | ||
| 20260505205933 | 69 | 148 | 10.0 | 14.0 | 0.00 | 0.00 | 0.00 | ||
| 20260505205531 | 69 | 173 | 11.0 | 16.0 | 0.00 | 0.00 | 0.00 | ||
| 20260505205130 | 69 | 178 | 11.0 | 14.0 | 0.00 | 0.00 | 0.00 | ||
| 20260505204728 | 70 | 182 | 14.0 | 20.0 | 0.00 | 0.00 | 0.00 | ||
| 20260505204320 | 69 | 175 | 11.0 | 18.0 | 0.00 | 0.00 | 0.00 | ||
| 20260505203918 | 70 | 186 | 11.0 | 16.0 | 0.00 | 0.00 | 0.00 | ||
| 20260505203516 | 70 | 161 | 14.0 | 18.0 | 0.00 | 0.00 | 0.00 | ||
| 20260505203115 | 70 | 192 | 12.0 | 20.0 | 0.00 | 0.00 | 0.00 | ||
| 20260505202713 | 70 | 193 | 12.0 | 20.0 | 0.00 | 0.00 | 0.00 | ||
| 20260505202312 | 70 | 172 | 11.0 | 15.0 | 0.00 | 0.00 | 0.00 | ||
| 20260505201910 | 70 | 193 | 8.0 | 12.0 | 0.00 | 0.00 | 0.00 | ||
| 20260505201509 | 70 | 181 | 11.0 | 15.0 | 0.00 | 0.00 | 0.00 | ||
| 20260505201108 | 71 | 196 | 13.0 | 25.0 | 0.00 | 0.00 | 0.00 | ||
| 20260505200706 | 70 | 172 | 16.0 | 23.0 | 0.00 | 0.00 | 0.00 | ||
| 20260505200257 | 71 | 196 | 12.0 | 19.0 | 0.00 | 0.00 | 0.00 | ||
| 20260505195855 | 71 | 176 | 10.0 | 19.0 | 0.00 | 0.00 | 0.00 | ||
| 20260505195454 | 71 | 194 | 9.0 | 12.0 | 0.00 | 0.00 | 0.00 | ||
| 20260505195053 | 71 | 173 | 10.0 | 16.0 | 0.00 | 0.00 | 0.00 | ||
| 20260505194650 | 71 | 192 | 9.0 | 12.0 | 0.00 | 0.00 | 0.00 | ||
| 20260505194249 | 71 | 180 | 11.0 | 17.0 | 0.00 | 0.00 | 0.00 | ||
| 20260505193847 | 71 | 163 | 11.0 | 14.0 | 0.00 | 0.00 | 0.00 | ||
| 20260505193446 | 71 | 170 | 9.0 | 17.0 | 0.00 | 0.00 | 0.00 | ||
| 20260505193045 | 71 | 173 | 9.0 | 12.0 | 0.00 | 0.00 | 0.00 | ||
| 20260505192642 | 71 | 164 | 6.0 | 10.0 | 0.00 | 0.00 | 0.00 | ||
| 20260505192234 | 72 | 180 | 6.0 | 9.0 | 0.00 | 0.00 | 0.00 | ||
| 20260505191832 | 72 | 177 | 9.0 | 18.0 | 0.00 | 0.00 | 0.00 | ||
| 20260505191431 | 72 | 162 | 5.0 | 8.0 | 0.00 | 0.00 | 0.00 | ||
| 20260505191029 | 72 | 186 | 9.0 | 12.0 | 0.00 | 0.00 | 0.00 | ||
| 20260505190627 | 73 | 187 | 9.0 | 12.0 | 0.00 | 0.00 | 0.00 | ||
| 20260505190226 | 73 | 173 | 8.0 | 12.0 | 0.00 | 0.00 | 0.00 | ||
| 20260505185825 | 73 | 182 | 9.0 | 11.0 | 0.00 | 0.00 | 0.00 | ||
| 20260505185422 | 73 | 184 | 10.0 | 16.0 | 0.00 | 0.00 | 0.00 | ||
| 20260505185021 | 73 | 202 | 13.0 | 18.0 | 0.00 | 0.00 | 0.00 | ||
| 20260505184620 | 73 | 182 | 10.0 | 16.0 | 0.00 | 0.00 | 0.00 | ||
| 20260505184212 | 73 | 178 | 10.0 | 12.0 | 0.00 | 0.00 | 0.00 | ||
| 20260505183809 | 73 | 183 | 7.0 | 10.0 | 0.00 | 0.00 | 0.00 | ||
| 20260505183408 | 73 | 195 | 10.0 | 14.0 | 0.00 | 0.00 | 0.00 | ||
| 20260505183007 | 73 | 187 | 7.0 | 9.0 | 0.00 | 0.00 | 0.00 | ||
| 20260505182605 | 73 | 189 | 9.0 | 13.0 | 0.00 | 0.00 | 0.00 | ||
| 20260505182204 | 73 | 177 | 8.0 | 12.0 | 0.00 | 0.00 | 0.00 | ||
| 20260505181801 | 73 | 183 | 8.0 | 11.0 | 0.00 | 0.00 | 0.00 | ||
| 20260505181400 | 74 | 177 | 9.0 | 14.0 | 0.00 | 0.00 | 0.00 | ||
| 20260505180959 | 74 | 187 | 8.0 | 11.0 | 0.00 | 0.00 | 0.00 | ||
| 20260505180557 | 74 | 182 | 11.0 | 16.0 | 0.00 | 0.00 | 0.00 | ||
| 20260505180148 | 74 | 175 | 11.0 | 15.0 | 0.00 | 0.00 | 0.00 | ||
| 20260505175746 | 74 | 175 | 11.0 | 16.0 | 0.00 | 0.00 | 0.00 | ||
| 20260505175345 | 74 | 175 | 10.0 | 14.0 | 0.00 | 0.00 | 0.00 | ||
| 20260505174944 | 74 | 166 | 10.0 | 16.0 | 0.00 | 0.00 | 0.00 | ||
| 20260505174541 | 74 | 168 | 10.0 | 13.0 | 0.00 | 0.00 | 0.00 | ||
| 20260505174140 | 74 | 165 | 10.0 | 14.0 | 0.00 | 0.00 | 0.00 | ||
| 20260505173738 | 75 | 158 | 13.0 | 21.0 | 0.00 | 0.00 | 0.00 | ||
| 20260505173337 | 75 | 169 | 11.0 | 17.0 | 0.00 | 0.00 | 0.00 | ||
| 20260505172935 | 75 | 192 | 9.0 | 16.0 | 0.00 | 0.00 | 0.00 | ||
| 20260505172533 | 75 | 186 | 11.0 | 18.0 | 0.00 | 0.00 | 0.00 | ||
| 20260505172126 | 76 | 200 | 6.0 | 8.0 | 0.00 | 0.00 | 0.00 | ||
| 20260505171723 | 76 | 185 | 7.0 | 11.0 | 0.00 | 0.00 | 0.00 | ||
| 20260505171322 | 76 | 200 | 10.0 | 14.0 | 0.00 | 0.00 | 0.00 | ||
| 20260505170920 | 76 | 187 | 11.0 | 15.0 | 0.00 | 0.00 | 0.00 | ||
| 20260505170518 | 76 | 183 | 9.0 | 12.0 | 0.00 | 0.00 | 0.00 | ||
| 20260505165716 | 76 | 202 | 12.0 | 20.0 | 0.00 | 0.00 | 0.00 | ||
| 20260505165313 | 77 | 182 | 11.0 | 14.0 | 0.00 | 0.00 | 0.00 | ||
| 20260505164511 | 77 | 182 | 13.0 | 19.0 | 0.00 | 0.00 | 0.00 | ||
| 20260505164103 | 77 | 188 | 12.0 | 20.0 | 0.00 | 0.00 | 0.00 | ||
| 20260505163700 | 77 | 178 | 17.0 | 23.0 | 0.00 | 0.00 | 0.00 | ||
| 20260505163259 | 78 | 170 | 18.0 | 28.0 | 0.00 | 0.00 | 0.00 | ||
| 20260505162858 | 80 | 161 | 13.0 | 22.0 | 0.00 | 0.00 | 0.00 | ||
| 20260505162456 | 80 | 176 | 10.0 | 14.0 | 0.00 | 0.00 | 0.00 | ||
| 20260505162054 | 80 | 185 | 14.0 | 19.0 | 0.00 | 0.00 | 0.00 | ||
| 20260505161652 | 81 | 169 | 12.0 | 19.0 | 0.00 | 0.00 | 0.00 | ||
| 20260505161251 | 81 | 186 | 14.0 | 18.0 | 0.00 | 0.00 | 0.00 | ||
| 20260505160850 | 82 | 169 | 14.0 | 17.0 | 0.00 | 0.00 | 0.00 | ||
| 20260505160448 | 81 | 180 | 11.0 | 15.0 | 0.00 | 0.00 | 0.00 | ||
| 20260505153228 | 80 | 172 | 14.0 | 19.0 | 0.00 | 0.00 | 0.00 | ||
| 20260505152826 | 80 | 171 | 16.0 | 22.0 | 0.00 | 0.00 | 0.00 | ||
| 20260505152424 | 80 | 163 | 13.0 | 23.0 | 0.00 | 0.00 | 0.00 | ||
| 20260505152016 | 79 | 165 | 20.0 | 31.0 | 0.00 | 0.00 | 0.00 | ||
| 20260505151615 | 80 | 145 | 17.0 | 29.0 | 0.00 | 0.00 | 0.00 | ||
| 20260505151212 | 80 | 163 | 15.0 | 23.0 | 0.00 | 0.00 | 0.00 | ||
| 20260505150811 | 80 | 171 | 18.0 | 25.0 | 0.00 | 0.00 | 0.00 | ||
| 20260505150409 | 81 | 160 | 15.0 | 21.0 | 0.00 | 0.00 | 0.00 | ||
| 20260505140337 | 79 | 162 | 11.0 | 21.0 | 0.00 | 0.00 | 0.00 | ||
| 20260505130259 | 81 | 151 | 20.0 | 28.0 | 0.00 | 0.00 | 0.00 | ||
| 20260505124653 | 82 | 175 | 18.0 | 27.0 | 0.00 | 0.00 | 0.00 | ||
| 20260505124251 | 82 | 177 | 15.0 | 22.0 | 0.00 | 0.00 | 0.00 | ||
| 20260505123843 | 82 | 154 | 15.0 | 23.0 | 0.00 | 0.00 | 0.00 | ||
| 20260505123440 | 82 | 175 | 18.0 | 23.0 | 0.00 | 0.00 | 0.00 | ||
| 20260505123039 | 82 | 160 | 20.0 | 30.0 | 0.00 | 0.00 | 0.00 | ||
| 20260505122638 | 83 | 161 | 15.0 | 23.0 | 0.00 | 0.00 | 0.00 | ||
| 20260505122236 | 82 | 178 | 16.0 | 24.0 | 0.00 | 0.00 | 0.00 | ||
| 20260505121834 | 82 | 165 | 20.0 | 30.0 | 0.00 | 0.00 | 0.00 | ||
| 20260505121432 | 81 | 169 | 24.0 | 33.0 | 0.00 | 0.00 | 0.00 | ||
| 20260505121031 | 82 | 185 | 15.0 | 22.0 | 0.00 | 0.00 | 0.00 | ||
| 20260505120630 | 81 | 141 | 11.0 | 15.0 | 0.00 | 0.00 | 0.00 | ||
| 20260505120227 | 82 | 154 | 12.0 | 17.0 | 0.00 | 0.00 | 0.00 | ||
| 20260505115819 | 80 | 175 | 9.0 | 14.0 | 0.00 | 0.00 | 0.00 | ||
| 20260505115417 | 79 | 180 | 12.0 | 16.0 | 0.00 | 0.00 | 0.00 | ||
| 20260505115016 | 80 | 180 | 16.0 | 21.0 | 0.00 | 0.00 | 0.00 | ||
| 20260505114614 | 80 | 141 | 15.0 | 26.0 | 0.00 | 0.00 | 0.00 | ||
| 20260505114212 | 80 | 147 | 14.0 | 24.0 | 0.00 | 0.00 | 0.00 | ||
| 20260505113811 | 79 | 140 | 11.0 | 17.0 | 0.00 | 0.00 | 0.00 | ||
| 20260505113409 | 78 | 162 | 14.0 | 22.0 | 0.00 | 0.00 | 0.00 | ||
| 20260505113008 | 78 | 167 | 13.0 | 18.0 | 0.00 | 0.00 | 0.00 | ||
| 20260505112606 | 78 | 154 | 11.0 | 19.0 | 0.00 | 0.00 | 0.00 | ||
| 20260505112204 | 78 | 165 | 13.0 | 18.0 | 0.00 | 0.00 | 0.00 | ||
| 20260505111756 | 77 | 181 | 17.0 | 24.0 | 0.00 | 0.00 | 0.00 | ||
| 20260505111355 | 79 | 174 | 15.0 | 25.0 | 0.00 | 0.00 | 0.00 | ||
| 20260505110953 | 79 | 176 | 16.0 | 25.0 | 0.00 | 0.00 | 0.00 | ||
| 20260505110552 | 78 | 172 | 16.0 | 22.0 | 0.00 | 0.00 | 0.00 | ||
| 20260505110150 | 78 | 184 | 11.0 | 18.0 | 0.00 | 0.00 | 0.00 | ||
| 20260505101725 | 78 | 152 | 11.0 | 16.0 | 0.00 | 0.00 | 0.00 | ||
| 20260505101323 | 77 | 165 | 14.0 | 23.0 | 0.00 | 0.00 | 0.00 | ||
| 20260505100922 | 77 | 151 | 17.0 | 28.0 | 0.00 | 0.00 | 0.00 | ||
| 20260505100521 | 77 | 178 | 18.0 | 24.0 | 0.00 | 0.00 | 0.00 | ||
| 20260505100118 | 78 | 163 | 17.0 | 23.0 | 0.00 | 0.00 | 0.00 | ||
| 20260505095710 | 79 | 157 | 17.0 | 26.0 | 0.00 | 0.00 | 0.00 | ||
| 20260505095309 | 79 | 154 | 16.0 | 24.0 | 0.00 | 0.00 | 0.00 | ||
| 20260505094908 | 78 | 165 | 18.0 | 31.0 | 0.00 | 0.00 | 0.00 | ||
| 20260505094505 | 78 | 166 | 23.0 | 30.0 | 0.00 | 0.00 | 0.00 | ||
| 20260505094104 | 78 | 177 | 22.0 | 29.0 | 0.00 | 0.00 | 0.00 | ||
| 20260505093739 | 78 | 182 | 17.0 | 29.0 | 0.00 | 0.00 | 0.00 | ||
| 20260505093703 | 78 | 182 | 17.0 | 29.0 | 0.00 | 0.00 | 0.00 | ||
| 20260505093301 | 79 | 166 | 21.0 | 32.0 | 0.00 | 0.00 | 0.00 | ||
| 20260505092859 | 78 | 153 | 15.0 | 25.0 | 0.00 | 0.00 | 0.00 | ||
| 20260505092458 | 79 | 157 | 16.0 | 22.0 | 0.00 | 0.00 | 0.00 | ||
| 20260505092056 | 78 | 169 | 19.0 | 26.0 | 0.00 | 0.00 | 0.00 | ||
| 20260505091648 | 78 | 168 | 20.0 | 31.0 | 0.00 | 0.00 | 0.00 | ||
| 20260505091246 | 78 | 155 | 16.0 | 26.0 | 0.00 | 0.00 | 0.00 | ||
| 20260505090844 | 78 | 163 | 18.0 | 23.0 | 0.00 | 0.00 | 0.00 | ||
| 20260505090443 | 78 | 147 | 16.0 | 26.0 | 0.00 | 0.00 | 0.00 | ||
| 20260505090041 | 78 | 146 | 17.0 | 23.0 | 0.00 | 0.00 | 0.00 | ||
| 20260505085640 | 78 | 155 | 13.0 | 27.0 | 0.00 | 0.00 | 0.00 | ||
| 20260505085237 | 77 | 150 | 15.0 | 24.0 | 0.00 | 0.00 | 0.00 | ||
| 20260505084836 | 77 | 155 | 16.0 | 21.0 | 0.00 | 0.00 | 0.00 | ||
| 20260505084435 | 77 | 159 | 12.0 | 18.0 | 0.00 | 0.00 | 0.00 | ||
| 20260505084033 | 76 | 150 | 11.0 | 20.0 | 0.00 | 0.00 | 0.00 | ||
| 20260505083624 | 76 | 153 | 12.0 | 21.0 | 0.00 | 0.00 | 0.00 | ||
| 20260505083222 | 76 | 167 | 18.0 | 29.0 | 0.00 | 0.00 | 0.00 | ||
| 20260505082821 | 77 | 146 | 11.0 | 16.0 | 0.00 | 0.00 | 0.00 | ||
| 20260505082420 | 76 | 149 | 14.0 | 20.0 | 0.00 | 0.00 | 0.00 | ||
| 20260505082017 | 75 | 137 | 15.0 | 23.0 | 0.00 | 0.00 | 0.00 | ||
| 20260505081616 | 76 | 136 | 14.0 | 23.0 | 0.00 | 0.00 | 0.00 | ||
| 20260505081215 | 76 | 160 | 15.0 | 27.0 | 0.00 | 0.00 | 0.00 | ||
| 20260505080814 | 75 | 140 | 16.0 | 23.0 | 0.00 | 0.00 | 0.00 | ||
| 20260505080413 | 75 | 167 | 14.0 | 20.0 | 0.00 | 0.00 | 0.00 | ||
| 20260505080010 | 75 | 155 | 16.0 | 23.0 | 0.00 | 0.00 | 0.00 | ||
| 20260505075602 | 74 | 161 | 8.0 | 12.0 | 0.00 | 0.00 | 0.00 | ||
| 20260505075200 | 74 | 154 | 13.0 | 19.0 | 0.00 | 0.00 | 0.00 | ||
| 20260505074759 | 75 | 154 | 12.0 | 15.0 | 0.00 | 0.00 | 0.00 | ||
| 20260505074357 | 75 | 133 | 11.0 | 15.0 | 0.00 | 0.00 | 0.00 | ||
| 20260505073955 | 75 | 143 | 11.0 | 17.0 | 0.00 | 0.00 | 0.00 | ||
| 20260505073554 | 75 | 156 | 13.0 | 17.0 | 0.00 | 0.00 | 0.00 | ||
| 20260505073152 | 75 | 134 | 12.0 | 20.0 | 0.00 | 0.00 | 0.00 | ||
| 20260505072750 | 75 | 145 | 13.0 | 21.0 | 0.00 | 0.00 | 0.00 | ||
| 20260505072349 | 74 | 141 | 12.0 | 19.0 | 0.00 | 0.00 | 0.00 | ||
| 20260505071947 | 74 | 141 | 13.0 | 19.0 | 0.00 | 0.00 | 0.00 | ||
| 20260505071539 | 75 | 145 | 14.0 | 21.0 | 0.00 | 0.00 | 0.00 | ||
| 20260505071136 | 76 | 148 | 12.0 | 22.0 | 0.00 | 0.00 | 0.00 |